Temperature
20 20 20 19 19 19 19 19 19 19 19 19 19 19 19 19 19 19 19 18 18 18 18 18 18 18 18 18 18 18 18 18 18 18 18 18 18 18 17 17 17 18 17
20 20 20 20 19 19 19 19 19 19 19 19 19 19 19 19 19 19 18 18 18 18 18 18 18 18 18 18 18 18 18 18 18 18 18 18 18 17 17 17 17 17 17
21 21 20 20 19 19 19 19 19 19 19 19 19 19 19 19 19 18 18 18 18 18 18 18 18 18 18 18 18 18 18 18 18 18 18 18 17 17 17 17 17 17 17
20 20 20 20 19 19 19 19 19 19 19 19 19 19 19 18 18 18 18 18 18 18 18 18 18 18 18 18 18 18 18 18 17 17 17 17 17 17 17 17 17 17 17
20 20 20 20 19 19 19 19 19 19 19 19 19 19 18 18 18 18 18 18 18 18 18 18 18 18 18 18 18 18 18 17 17 17 17 17 17 17 17 17 17 17 17
20 20 20 20 20 19 19 19 19 19 19 19 19 18 18 18 18 18 18 18 18 18 18 18 18 18 18 18 18 18 18 18 17 17 17 17 17 17 17 17 17 17 17
20 21 21 20 20 19 19 19 19 19 19 19 18 18 18 18 18 18 18 18 18 18 18 18 18 18 18 18 18 18 18 18 18 17 17 18 17 17 17 17 17 17 17
21 21 21 20 20 19 19 19 19 19 19 19 18 18 18 18 18 18 18 18 18 18 18 18 18 18 18 18 18 18 18 18 17 17 18 18 18 17 17 17 17 17 17
21 21 21 20 20 20 19 19 19 19 19 19 18 19 19 19 18 18 18 18 18 18 18 18 18 18 18 18 18 18 18 18 18 18 18 18 18 18 17 17 17 17 17
21 21 20 20 20 20 20 19 19 19 19 19 19 19 19 18 18 18 18 18 18 18 18 18 18 18 18 18 18 19 18 18 18 18 18 18 18 18 17 17 17 17 17
22 21 21 20 19 19 19 19 19 19 19 19 19 18 18 18 18 18 18 18 18 18 18 18 18 18 18 18 19 19 19 19 18 18 18 18 18 18 18 17 17 17 17
22 22 21 21 20 20 19 19 19 19 19 19 18 18 18 18 18 18 18 18 18 18 18 18 18 18 18 18 19 19 19 19 18 19 19 18 18 18 18 17 17 17 17
22 22 21 21 20 20 20 19 19 19 19 18 18 18 18 18 18 18 18 19 18 18 18 18 18 18 18 18 18 19 19 19 18 18 18 18 18 18 18 18 17 17 17
22 22 22 21 20 20 20 20 19 19 19 19 19 19 18 18 18 18 18 18 18 18 18 18 18 18 18 18 18 18 19 19 18 18 18 18 18 18 18 18 18 17 17
22 22 21 21 20 20 20 20 20 19 19 19 19 19 19 19 18 18 18 18 18 18 18 18 18 18 18 18 18 18 18 18 18 18 18 18 18 18 18 18 18 17 17
22 21 21 21 20 20 20 20 20 20 19 19 19 19 19 19 18 18 18 18 18 18 18 18 18 18 18 18 18 18 18 18 18 18 18 18 18 18 18 18 18 18 18
22 21 21 20 20 20 20 20 20 20 19 19 19 19 19 19 19 18 18 18 18 18 18 18 18 18 18 18 18 18 18 18 18 18 18 18 18 18 18 18 18 18 18
22 21 21 20 20 20 20 20 20 20 20 20 19 19 19 19 19 19 18 18 18 18 18 18 18 18 18 18 18 18 18 18 18 18 18 18 18 18 18 18 18 18 18
22 21 21 21 20 20 20 20 20 20 20 19 19 19 19 19 19 19 19 18 18 18 18 18 18 18 18 18 18 18 19 19 18 18 18 18 18 18 18 18 18 18 18
22 21 21 21 20 20 20 20 20 20 19 19 19 19 19 19 19 19 19 19 18 18 18 18 18 18 18 19 19 19 19 19 19 18 18 18 18 18 18 18 18 18 18
22 21 21 21 21 20 20 20 20 20 19 19 19 19 19 19 19 19 18 18 19 18 18 18 18 18 18 19 19 19 19 19 19 19 19 19 19 18 18 18 18 18 18
22 21 21 21 21 21 20 20 20 19 19 19 19 19 19 19 19 19 19 18 18 18 18 18 18 18 18 18 18 18 19 19 19 19 19 19 19 19 19 18 18 18 18
22 22 21 21 21 21 20 20 20 19 19 19 19 19 19 19 19 19 18 18 18 18 18 18 18 18 18 18 18 18 18 19 19 20 20 19 19 19 19 19 18 18 18
22 22 22 22 21 21 20 20 20 19 19 19 19 19 19 19 19 19 19 18 18 18 18 18 18 18 18 18 18 18 18 19 19 19 19 19 19 19 19 19 19 18 18
23 22 22 21 21 21 20 20 20 19 19 19 19 19 19 19 19 18 18 18 18 18 18 18 18 18 18 18 18 18 18 18 18 18 19 19 19 19 19 19 19 18 18
23 22 21 21 21 21 20 20 20 20 19 19 19 19 19 19 19 19 18 18 18 18 18 18 18 18 18 18 18 18 18 18 18 18 18 18 19 19 19 18 18 18 18
Wind_Speed
16 16 16 15 15 15 15 15 16 16 16 16 16 17 17 17 17 17 17 17 18 17 17 17 17 17 18 18 18 18 19 19 19 20 19 19 18 17 17 18 19 17 18
19 18 17 16 15 15 16 15 16 15 15 15 16 16 16 16 16 16 16 16 17 17 17 17 16 16 17 17 16 17 17 18 18 19 19 18 17 16 15 16 17 16 17
19 18 17 16 16 16 15 15 15 15 15 15 15 15 15 15 15 15 15 16 16 17 16 16 16 16 16 15 14 14 14 15 16 17 18 16 16 16 18 18 17 17 16
19 18 17 17 16 15 15 15 15 14 14 14 14 14 14 14 14 14 14 15 15 16 16 16 16 16 15 13 12 11 10 10 11 12 13 15 15 16 17 17 16 16 16
19 19 18 17 16 15 15 14 14 14 14 14 14 13 13 13 14 14 14 14 14 15 15 15 15 14 13 12 9 8 6 5 6 9 15 16 15 15 16 15 15 15 15
19 19 18 17 16 15 14 14 13 13 13 13 13 13 13 13 13 13 13 13 14 14 14 14 14 13 12 10 7 4 2 1 2 9 15 16 14 14 15 14 14 14 14
20 19 18 17 16 15 14 13 13 12 12 12 12 12 12 12 12 12 12 13 13 13 13 13 12 11 10 8 5 2 1 2 2 11 15 15 14 14 14 13 13 13 13
20 19 18 16 15 14 13 12 12 12 12 11 11 11 11 11 11 12 12 12 12 12 12 12 11 10 8 5 2 2 4 6 7 13 15 15 15 14 13 13 12 12 12
20 18 17 16 15 14 13 12 11 11 11 11 11 11 10 10 11 11 11 11 11 11 11 10 10 9 7 4 0 3 5 7 2 11 15 14 14 14 13 12 11 11 11
17 17 16 17 16 14 13 12 12 11 10 10 10 10 10 10 10 11 11 10 10 10 10 9 9 7 5 2 2 4 7 8 2 11 13 14 15 13 12 11 11 11 10
13 13 14 15 15 15 15 14 13 12 10 10 9 9 10 9 10 10 11 11 9 9 8 8 8 7 5 4 5 6 7 5 7 11 13 16 14 13 12 11 10 10 10
11 11 11 11 11 12 13 14 13 12 12 10 9 11 9 6 8 11 13 10 9 8 7 8 8 8 7 6 7 8 7 4 7 11 13 17 14 13 11 11 10 10 9
9 9 11 11 8 8 8 10 8 9 10 9 9 8 7 6 8 11 10 9 9 8 7 8 9 9 8 6 4 5 3 1 6 11 14 17 15 13 11 10 10 10 9
8 8 10 10 7 4 5 5 7 7 7 7 8 7 6 3 3 5 5 8 9 7 6 6 6 5 4 3 2 2 1 2 8 11 13 16 15 13 12 11 10 10 9
8 7 8 8 7 5 3 1 3 4 5 7 8 6 6 4 3 4 2 3 4 5 6 3 3 2 2 2 3 2 0 1 6 10 12 15 15 14 12 12 11 11 11
9 8 8 8 7 5 4 1 1 2 4 5 6 7 6 3 4 4 3 2 3 3 4 4 3 2 2 2 2 1 1 1 2 8 12 14 15 15 14 13 13 12 12
10 8 8 8 8 6 6 5 5 4 5 4 5 7 6 5 4 3 3 3 3 3 2 2 2 2 3 3 3 3 2 3 3 5 10 12 13 15 16 15 15 14 13
10 9 8 8 10 7 5 4 3 4 4 4 6 7 6 5 6 3 2 3 4 4 3 2 3 3 3 2 3 3 3 4 5 5 7 11 14 14 17 18 17 17 16
10 9 8 6 8 8 7 5 4 2 1 3 5 6 7 7 7 5 3 3 4 3 2 4 3 2 2 3 3 4 4 4 4 6 7 10 12 14 15 19 21 20 18
10 10 9 7 7 7 6 5 4 4 3 4 4 5 8 8 9 7 4 5 5 3 3 3 1 2 2 3 5 4 3 5 5 5 6 8 10 13 15 16 18 19 20
11 10 9 8 7 6 5 5 5 5 4 4 5 7 9 9 9 7 4 4 5 4 4 4 3 4 4 3 3 3 4 5 6 6 5 5 6 10 12 15 16 15 16
12 11 10 9 9 8 5 4 4 4 4 5 5 5 8 9 9 9 6 5 6 4 5 5 4 3 3 3 3 2 2 3 4 7 6 6 6 5 6 11 14 15 13
13 12 11 10 9 9 7 5 4 3 3 3 3 3 5 7 8 7 7 6 5 6 6 6 6 6 4 4 4 3 2 2 2 2 4 4 4 4 4 6 10 13 13
13 13 10 10 9 8 7 6 6 5 5 4 3 3 4 5 7 8 7 7 6 5 5 7 7 6 5 4 3 4 4 2 1 2 2 2 3 4 4 4 5 9 11
13 12 11 10 9 8 7 7 6 6 4 3 2 3 4 4 5 7 6 5 5 5 6 6 5 5 5 5 4 3 5 4 5 4 3 2 2 2 3 3 3 4 8
11 11 11 10 8 8 7 7 6 6 4 3 3 3 3 3 4 6 7 5 6 5 5 5 5 6 6 6 5 4 4 3 3 4 4 4 4 3 2 2 2 2 4
Wind_Direction
111 113 110 106 104 101 98 96 95 93 91 88 86 85 85 86 87 88 88 89 90 91 92 92 91 90 89 90 92 94 96 97 98 99 99 99 100 102 105 107 102 101 105
114 115 113 109 106 104 101 98 97 95 94 92 90 88 88 88 89 89 90 90 91 92 92 93 93 92 93 94 97 100 104 106 108 107 104 98 96 97 99 98 98 107 107
115 119 116 111 108 107 105 102 99 96 94 93 92 91 90 90 91 92 91 92 92 93 93 94 94 94 95 97 101 105 111 116 121 122 114 104 97 95 98 101 104 108 108
121 122 116 114 111 109 107 104 101 99 96 94 92 92 92 92 93 94 93 93 94 94 94 94 95 96 97 100 104 110 117 124 136 132 111 105 102 101 104 106 109 109 109
112 113 116 117 114 112 110 107 104 103 100 97 94 92 92 93 94 94 94 95 96 97 96 96 97 97 98 99 103 110 119 128 136 118 99 98 100 108 108 110 112 112 111
120 119 120 120 117 115 113 110 108 107 104 100 98 96 95 95 94 94 96 98 99 99 99 99 99 99 100 101 103 104 109 101 133 116 112 108 109 115 114 115 116 115 113
121 121 125 124 121 120 117 114 112 110 108 105 104 101 100 99 97 96 98 99 101 101 102 102 102 102 102 102 99 86 5 336 119 100 101 106 113 119 118 117 118 118 116
124 123 127 128 127 126 124 121 118 115 114 112 110 108 106 104 104 102 101 103 104 105 104 106 106 105 105 102 91 3 333 327 100 105 101 108 118 120 120 120 120 121 120
124 129 137 138 135 133 132 130 127 125 123 121 120 119 119 117 115 110 106 106 106 108 110 112 113 112 111 114 99 312 316 321 63 118 113 117 124 125 125 125 125 123 123
131 138 144 145 145 147 142 140 138 136 135 135 134 135 136 134 130 127 119 114 115 116 119 123 125 127 130 154 247 286 303 309 163 112 114 125 130 131 133 132 130 129 129
131 138 148 146 153 156 150 149 150 149 151 153 155 159 164 164 150 146 124 127 127 129 132 138 144 149 161 202 239 265 286 274 105 105 114 132 136 136 138 140 138 138 137
137 143 144 142 148 156 149 152 162 161 165 179 170 176 188 175 145 135 137 142 146 149 155 164 171 179 195 207 221 242 260 216 120 117 129 140 142 144 146 148 148 148 148
153 150 142 133 146 151 140 158 162 159 163 178 175 171 167 157 146 142 153 157 165 174 188 179 195 213 210 211 211 224 253 85 100 114 139 147 149 152 156 159 160 160 162
166 157 141 135 141 126 132 143 152 157 165 162 163 175 161 158 153 148 158 166 176 185 193 195 209 212 202 201 221 274 339 82 107 123 148 156 157 161 167 171 174 174 175
163 161 131 127 123 124 107 150 154 152 157 152 158 167 162 165 160 149 144 164 187 184 177 205 220 190 177 210 232 214 158 59 123 137 150 165 167 171 177 183 186 188 187
167 164 140 138 136 141 149 182 200 162 144 155 162 163 177 167 144 152 166 191 209 203 191 191 200 181 193 227 237 225 183 114 131 141 155 172 178 181 186 191 195 197 198
169 161 150 156 153 166 176 193 197 194 179 165 154 154 175 173 157 173 176 198 211 198 196 207 226 219 212 213 216 220 192 202 193 170 165 172 183 193 196 198 201 204 206
166 157 166 179 162 171 190 206 217 207 181 163 161 164 182 180 174 201 197 205 211 198 190 220 239 227 231 230 216 215 200 193 200 199 195 187 184 193 201 205 205 207 210
160 158 170 183 160 172 185 196 234 229 200 183 180 175 180 191 194 211 218 199 218 217 208 229 201 225 248 250 241 220 213 204 206 214 210 207 198 192 191 202 207 209 211
161 162 169 181 169 172 180 188 225 221 203 205 204 190 180 196 204 212 221 205 224 219 218 237 233 218 251 262 266 257 230 212 204 215 217 217 205 201 198 197 200 211 215
165 166 173 184 176 179 188 192 208 216 212 210 210 198 197 208 207 205 236 201 223 225 217 226 223 233 233 237 263 281 261 232 213 210 215 220 212 211 201 189 191 200 210
170 173 178 185 181 187 195 200 213 214 213 212 219 196 202 210 212 209 212 222 217 220 218 230 226 239 252 223 216 255 284 271 245 225 205 212 215 203 200 195 192 196 200
175 179 185 184 183 190 194 196 222 219 236 236 220 209 216 213 218 229 208 222 225 223 216 216 219 220 238 250 220 204 226 252 279 250 219 214 202 190 207 207 196 194 201
179 181 178 177 181 185 194 204 213 218 225 230 220 214 216 222 227 229 223 223 226 234 229 220 219 219 224 243 247 230 238 247 276 306 297 236 214 203 218 228 206 190 196
180 176 175 175 180 184 195 206 216 231 234 239 216 215 221 224 232 238 230 226 227 235 235 234 229 219 219 228 237 237 237 241 232 234 269 290 286 237 220 229 234 177 188
172 172 176 172 177 184 195 205 210 230 235 241 236 223 227 232 232 238 232 219 223 231 235 235 230 225 227 234 240 245 240 231 231 227 238 254 261 264 246 223 223 189 177
Height
1526 1526 1528 1529 1529 1530 1531 1532 1533 1533 1534 1535 1536 1536 1537 1538 1538 1539 1540 1541 1542 1543 1544 1545 1546 1547 1548 1549 1550 1551 1552 1553 1554 1555 1557 1558 1559 1560 1561 1562 1563 1564 1565
1526 1528 1530 1531 1532 1533 1534 1535 1536 1537 1537 1538 1539 1539 1540 1541 1542 1542 1543 1544 1545 1545 1546 1547 1548 1549 1550 1551 1553 1554 1555 1556 1557 1558 1559 1560 1561 1562 1563 1565 1566 1567 1568
1527 1529 1531 1533 1534 1535 1536 1537 1538 1539 1540 1541 1541 1542 1543 1544 1544 1545 1546 1547 1547 1548 1549 1550 1551 1552 1553 1554 1555 1556 1557 1559 1559 1561 1562 1563 1564 1565 1566 1567 1568 1569 1570
1529 1531 1533 1535 1536 1537 1539 1540 1541 1542 1543 1543 1544 1545 1546 1546 1547 1548 1549 1549 1550 1551 1552 1553 1553 1554 1555 1556 1558 1559 1560 1561 1562 1564 1565 1565 1566 1567 1568 1569 1570 1571 1572
1532 1533 1535 1536 1538 1540 1541 1542 1543 1544 1545 1546 1547 1548 1548 1549 1550 1551 1551 1552 1553 1554 1554 1555 1556 1557 1558 1559 1560 1561 1563 1564 1565 1566 1567 1568 1568 1569 1570 1571 1572 1573 1575
1533 1535 1537 1538 1540 1542 1543 1544 1545 1546 1547 1548 1549 1550 1551 1552 1552 1553 1554 1555 1555 1556 1557 1557 1558 1559 1560 1561 1562 1564 1565 1566 1567 1569 1569 1569 1570 1571 1572 1573 1574 1575 1576
1535 1536 1539 1540 1542 1543 1545 1546 1547 1549 1550 1550 1551 1552 1553 1554 1555 1555 1556 1557 1557 1558 1559 1560 1560 1561 1562 1563 1565 1566 1567 1568 1570 1571 1571 1571 1572 1573 1574 1575 1576 1577 1578
1537 1538 1540 1542 1544 1545 1547 1548 1549 1550 1551 1552 1553 1554 1555 1556 1556 1557 1558 1559 1559 1560 1561 1562 1563 1563 1564 1566 1567 1568 1569 1570 1571 1572 1572 1572 1573 1574 1575 1576 1577 1578 1579
1539 1540 1542 1544 1545 1547 1548 1550 1551 1552 1553 1554 1555 1556 1557 1558 1558 1559 1560 1561 1561 1562 1563 1564 1565 1565 1567 1568 1569 1570 1571 1571 1573 1573 1573 1574 1575 1576 1576 1577 1578 1579 1580
1541 1542 1544 1545 1547 1548 1550 1551 1553 1554 1555 1556 1557 1558 1559 1560 1560 1561 1562 1563 1563 1564 1565 1566 1567 1568 1569 1570 1571 1572 1573 1573 1574 1575 1574 1575 1576 1577 1577 1578 1579 1580 1581
1543 1545 1546 1548 1549 1550 1551 1553 1554 1555 1556 1557 1559 1560 1560 1561 1562 1563 1564 1564 1565 1566 1567 1568 1569 1570 1571 1572 1573 1574 1574 1574 1576 1575 1575 1576 1577 1577 1578 1579 1580 1581 1582
1544 1546 1548 1550 1551 1553 1554 1554 1555 1556 1557 1559 1560 1561 1562 1563 1564 1565 1565 1566 1567 1568 1568 1569 1570 1571 1572 1573 1574 1575 1575 1576 1576 1576 1576 1577 1577 1578 1579 1579 1580 1581 1582
1545 1547 1549 1550 1552 1554 1555 1556 1557 1558 1559 1560 1561 1562 1564 1565 1565 1566 1566 1567 1568 1569 1569 1570 1571 1572 1574 1574 1575 1576 1576 1577 1577 1576 1577 1577 1578 1578 1579 1580 1580 1581 1582
1545 1547 1549 1550 1552 1554 1556 1557 1558 1559 1560 1561 1562 1563 1564 1565 1566 1567 1567 1568 1569 1569 1570 1571 1572 1573 1574 1575 1576 1576 1577 1577 1577 1576 1577 1577 1578 1578 1579 1580 1580 1581 1582
1544 1547 1548 1549 1551 1553 1555 1556 1558 1560 1560 1561 1562 1563 1564 1565 1566 1567 1568 1568 1569 1570 1571 1571 1572 1573 1574 1575 1576 1576 1577 1577 1577 1577 1577 1578 1578 1578 1579 1579 1580 1581 1581
1544 1546 1547 1548 1550 1552 1553 1555 1557 1559 1560 1561 1562 1562 1563 1565 1566 1566 1567 1568 1569 1570 1571 1571 1572 1573 1573 1574 1575 1576 1576 1577 1577 1577 1577 1577 1578 1578 1578 1579 1579 1580 1580
1543 1545 1546 1548 1549 1551 1553 1554 1556 1558 1559 1560 1561 1561 1562 1564 1564 1566 1566 1567 1568 1569 1570 1571 1571 1572 1573 1573 1574 1575 1575 1576 1576 1577 1577 1577 1577 1577 1578 1578 1579 1579 1579
1541 1543 1545 1547 1548 1549 1551 1553 1555 1556 1557 1558 1559 1560 1561 1562 1563 1564 1565 1566 1567 1568 1569 1570 1570 1571 1572 1573 1573 1574 1574 1574 1575 1575 1576 1576 1575 1576 1576 1577 1577 1578 1578
1539 1541 1543 1546 1547 1548 1550 1551 1553 1554 1555 1556 1557 1558 1559 1560 1561 1562 1563 1564 1565 1567 1568 1568 1569 1570 1571 1571 1572 1572 1572 1572 1573 1573 1574 1574 1574 1574 1574 1575 1575 1576 1576
1538 1539 1541 1544 1545 1546 1548 1549 1551 1553 1554 1555 1556 1557 1557 1558 1559 1560 1561 1562 1563 1564 1565 1566 1567 1568 1568 1569 1570 1570 1570 1570 1571 1571 1571 1572 1572 1572 1572 1572 1573 1573 1574
1535 1537 1538 1540 1542 1544 1545 1547 1548 1550 1552 1553 1554 1554 1555 1555 1556 1557 1558 1559 1560 1562 1562 1564 1564 1565 1566 1567 1568 1568 1568 1568 1568 1568 1569 1569 1570 1570 1570 1570 1570 1570 1571
1532 1534 1536 1537 1539 1541 1543 1545 1547 1549 1550 1550 1551 1551 1552 1553 1553 1554 1555 1556 1557 1558 1559 1561 1562 1562 1563 1565 1565 1565 1565 1566 1565 1566 1566 1566 1567 1567 1568 1568 1567 1567 1568
1529 1531 1534 1535 1537 1539 1541 1543 1545 1546 1547 1548 1548 1549 1549 1550 1550 1551 1552 1553 1554 1556 1556 1557 1558 1559 1560 1561 1562 1563 1563 1563 1563 1563 1563 1563 1564 1564 1565 1565 1565 1565 1565
1526 1529 1531 1533 1535 1537 1539 1540 1542 1543 1544 1545 1546 1546 1546 1547 1547 1548 1549 1550 1551 1552 1553 1554 1554 1556 1557 1558 1559 1560 1561 1561 1561 1561 1561 1561 1561 1562 1562 1562 1563 1562 1562
1525 1527 1529 1531 1533 1534 1536 1538 1539 1541 1542 1543 1543 1543 1543 1543 1544 1544 1545 1546 1547 1548 1549 1550 1551 1552 1553 1554 1555 1556 1557 1558 1558 1559 1558 1559 1559 1559 1558 1559 1559 1559 1559
1522 1525 1527 1529 1530 1532 1534 1535 1537 1538 1539 1540 1540 1540 1540 1540 1541 1541 1541 1542 1543 1544 1545 1546 1547 1548 1549 1550 1551 1552 1554 1554 1554 1555 1555 1555 1555 1555 1555 1555 1555 1556 1556